Погода в Останкино

Россия / Нижегородская область     56°16′04″N   44°25′00″E
темп.,
°C
ветер,
м/с
пор.,
м/с
влажн.,
%
обл.,
%
осадки,
мм/ч
давл.,
гПа
погр.,
м
15 апреля, чт
чт1500:00+10ю22855 0.0 102019
03:00+9ю228150 0.0 102010
06:00+8ююв11795 0.0 101910
09:00+14ю12605 0.0 1019273
12:00+18ю1246100 0.0 1018794
15:00+19всв004099 0.0 10181599
18:00+16ссв225799 0.0 101813
21:00+11св5118998 0.0 1020359
16 апреля, пт
пт1600:00+8св5119134 0.0 1021403
03:00+6св4118920 0.0 1022427
06:00+5св4118797 0.0 1023476
09:00+8всв5875100 0.0 1024637
12:00+11всв576776 0.0 1024905
15:00+12всв576671 0.0 1024984
18:00+11всв486882 0.0 1025920
21:00+8св4117316 0.0 1026389
17 апреля, сб
сб1700:00+6всв412675 0.0 1026379
03:00+4св411708 0.0 1027340
06:00+3св412705 0.0 1028372
09:00+8всв59485 0.0 1028668
12:00+12всв57340 0.0 10271213
15:00+13всв56320 0.0 10271489
18:00+11св37450 0.0 1026323
21:00+6св37660 0.0 1027147
18 апреля, вс
вс1800:00+4св27730 0.0 1027129
03:00+3св27820 0.0 1028138
06:00+2ссв28800 0.0 1029186
09:00+9ссв36530 0.0 1028648
12:00+12ссв46425 0.0 10281560
15:00+13св573971 0.0 10282018
18:00+10св58585 0.0 10301038
21:00+5всв310689 0.0 1032494
19 апреля, пн
пн1900:00+3всв3106749 0.0 1034393
03:00+1всв286863 0.0 1035226
06:00+1в386599 0.0 1037285
09:00+5вюв45405 0.0 10381158
12:00+8вюв45315 0.0 10371658
15:00+8вюв34295 0.0 10361752
18:00+7юв36395 0.0 1036417
21:00+2вюв26570 0.0 1037121